(60014) = 1999 TW27

Discovered at Socorro on 1999-10-03 by LINEAR.

Orbit

Orbit type: Main Belt

Note: WebGL enabled browser required.

epoch2024-03-31.0
epoch JD2460400.5
perihelion date2022-01-22.14565
perihelion JD2459601.64565
argument of perihelion (°)112.08446
ascending node (°)293.03254
inclination (°)1.29511
eccentricity0.2072382
perihelion distance (AU)1.9011193
Tisserand w.r.t. Jupiter3.5
ΔV w.r.t. Earth (km/sec)8.6
semimajor axis (AU)2.3980965
mean anomaly (°)212.01739
mean daily motion (°/day)0.26540180
aphelion distance (AU)2.895
period (years)3.71
P-vector [x]0.70544361
P-vector [y]0.64166521
P-vector [z]0.30102338
Q-vector [x]-0.70846077
Q-vector [y]0.65084642
Q-vector [z]0.27291440
absolute magnitude15.16
phase slope0.15
uncertainty0
referenceMPEC 2024-F28
observations used2043
oppositions19
arc length (days)10151
first opposition used1995
last opposition used2023
residual rms (arc-secs)0.65
perturbers coarse indicatorM-v
perturbers precise indicator003Ek
first observation date used1995-08-24.0
last observation date used2023-06-09.0
computer nameMPCLINUX
JD of orbit computation2456909.124225
perihelion JD uncertainty (days)3.8992E-05
argument of perihelion uncertainty (°)1.6248E-04
ascending node uncertainty (°)1.6217E-04
inclination uncertainty (°)3.3773E-06
eccentricity uncertainty 2.9764E-08
perihelion distance uncertainty (AU)7.2561E-08
Minimum Orbit Intersection Distances (in AU)
for orbit epoch: 2460400.5, reference: E2024-GB3
Mercury1.58228
Venus1.17967
Earth0.9111
Mars0.41063
Jupiter2.50009
Saturn6.81867
Uranus15.7326
Neptune27.7409

Observations

2091 total observations over interval: 1995 08 24.33646 – 2023 06 09.194660
These data are available for download (format description).

Date (UT) J2000 RA J2000 Dec Magn Location Ref
1995 08 24.33646 23 43 10.17 +00 11 58.6 17.4 V 809 – European Southern Observatory, La Silla MPS 16530
1995 08 25.30035 23 42 37.52 +00 09 33.8 17.4 V 809 – European Southern Observatory, La Silla MPS 16530
1995 09 01.29514 23 37 59.22 -00 12 42.7 17.4 V 809 – European Southern Observatory, La Silla MPS 16530
1995 09 17.17569 23 24 32.25 -01 26 18.2 16.8 V 809 – European Southern Observatory, La Silla MPS 16530
1995 09 18.23611 23 23 34.98 -01 31 50.8 16.7 V 809 – European Southern Observatory, La Silla MPS 16530
1995 09 19.14167 23 22 46.54 -01 36 35.4 16.4 V 809 – European Southern Observatory, La Silla MPS 16530
1995 09 19.33903 23 22 35.65 -01 37 45.9 17.1 V 691 – Steward Observatory, Kitt Peak-Spacewatch MPS 32245
1995 09 19.34445 23 22 35.34 -01 37 47.6 17.1 V 691 – Steward Observatory, Kitt Peak-Spacewatch MPS 32245
1995 09 19.34984 23 22 35.04 -01 37 49.3 17.1 V 691 – Steward Observatory, Kitt Peak-Spacewatch MPS 32245
1995 09 24.22247 23 18 18.86 -02 03 13.8   691 – Steward Observatory, Kitt Peak-Spacewatch MPS 16530
1995 09 24.24316 23 18 17.74 -02 03 20.1 16.8 V 691 – Steward Observatory, Kitt Peak-Spacewatch MPS 16530
1995 09 24.26399 23 18 16.61 -02 03 26.7   691 – Steward Observatory, Kitt Peak-Spacewatch MPS 16530
1996 11 07.46683 11 05 40.44 +05 11 07.4 20.9 V 691 – Steward Observatory, Kitt Peak-Spacewatch MPS 79600
1996 11 07.48763 11 05 42.17 +05 10 55.5 20.6 V 691 – Steward Observatory, Kitt Peak-Spacewatch MPS 79600
1996 11 07.50822 11 05 43.83 +05 10 44.0 20.4 V 691 – Steward Observatory, Kitt Peak-Spacewatch MPS 79600
1996 11 09.48750 11 08 27.89 +04 52 41.3 21.0 V 691 – Steward Observatory, Kitt Peak-Spacewatch MPS 79600
1996 11 09.50009 11 08 28.92 +04 52 34.2 20.6 V 691 – Steward Observatory, Kitt Peak-Spacewatch MPS 79600
1996 11 09.51237 11 08 29.93 +04 52 28.0 20.3 V 691 – Steward Observatory, Kitt Peak-Spacewatch MPS 79600
1999 10 03.34306 04 16 11.71 +23 22 34.6 18.4   704 – Lincoln Laboratory ETS, New Mexico MPS 6940
1999 10 03.35342 04 16 12.02 +23 22 36.2 18.8   704 – Lincoln Laboratory ETS, New Mexico MPS 6940
1999 10 03.36381 04 16 12.42 +23 22 35.4 19.0   704 – Lincoln Laboratory ETS, New Mexico MPS 6940
1999 10 03.37425 04 16 12.81 +23 22 37.3 18.7   704 – Lincoln Laboratory ETS, New Mexico MPS 6940
1999 10 03.38466 04 16 13.06 +23 22 39.3 18.6   704 – Lincoln Laboratory ETS, New Mexico MPS 6940
1999 10 06.37606 04 17 44.36 +23 28 10.0 18.5   704 – Lincoln Laboratory ETS, New Mexico MPS 6940
1999 10 06.38926 04 17 44.72 +23 28 11.1 18.2   704 – Lincoln Laboratory ETS, New Mexico MPS 6940
1999 10 06.40245 04 17 45.08 +23 28 12.5 19.4   704 – Lincoln Laboratory ETS, New Mexico MPS 6940
1999 10 06.41563 04 17 45.40 +23 28 14.4 18.6   704 – Lincoln Laboratory ETS, New Mexico MPS 6940
1999 10 06.42913 04 17 45.75 +23 28 16.2 17.9   704 – Lincoln Laboratory ETS, New Mexico MPS 6940
1999 11 03.32349 04 14 55.86 +23 31 39.2 17.3   704 – Lincoln Laboratory ETS, New Mexico MPS 8576
1999 11 03.33961 04 14 55.16 +23 31 38.1 17.3   704 – Lincoln Laboratory ETS, New Mexico MPS 8576
1999 11 03.35571 04 14 54.49 +23 31 36.9 17.2   704 – Lincoln Laboratory ETS, New Mexico MPS 8576
1999 11 03.37177 04 14 53.81 +23 31 35.2 17.0   704 – Lincoln Laboratory ETS, New Mexico MPS 8576
1999 11 03.38785 04 14 53.12 +23 31 33.4 16.7   704 – Lincoln Laboratory ETS, New Mexico MPS 8576
1999 11 14.35664 04 06 09.95 +23 07 11.7 16.7   704 – Lincoln Laboratory ETS, New Mexico MPS 8576
1999 11 14.37112 04 06 09.10 +23 07 09.2 17.2   704 – Lincoln Laboratory ETS, New Mexico MPS 8576
1999 11 14.38573 04 06 08.23 +23 07 06.7 17.0   704 – Lincoln Laboratory ETS, New Mexico MPS 8576
1999 11 14.40005 04 06 07.39 +23 07 04.1 17.3   704 – Lincoln Laboratory ETS, New Mexico MPS 8576
1999 11 14.41449 04 06 06.55 +23 07 01.6 17.2   704 – Lincoln Laboratory ETS, New Mexico MPS 8576
1999 11 16.22443 04 04 25.83 +23 01 41.6 16.7   704 – Lincoln Laboratory ETS, New Mexico MPS 8576
1999 11 16.23871 04 04 24.98 +23 01 38.8 16.5   704 – Lincoln Laboratory ETS, New Mexico MPS 8576
1999 11 16.25295 04 04 24.14 +23 01 36.5 16.4   704 – Lincoln Laboratory ETS, New Mexico MPS 8576
1999 11 16.26718 04 04 23.29 +23 01 33.9 16.4   704 – Lincoln Laboratory ETS, New Mexico MPS 8576
1999 11 16.28145 04 04 22.42 +23 01 31.6 16.7   704 – Lincoln Laboratory ETS, New Mexico MPS 8576
1999 11 19.15946 04 01 36.65 +22 52 22.7 16.4 R 699 – Lowell Observatory-LONEOS MPS 12019
1999 11 19.18999 04 01 34.76 +22 52 17.6   699 – Lowell Observatory-LONEOS MPS 12019
1999 11 19.22053 04 01 32.91 +22 52 12.0   699 – Lowell Observatory-LONEOS MPS 12019
1999 12 02.23475 03 48 58.41 +22 04 36.0 16.4 R 699 – Lowell Observatory-LONEOS MPS 8576
1999 12 02.26528 03 48 56.72 +22 04 31.0   699 – Lowell Observatory-LONEOS MPS 8576
1999 12 02.29584 03 48 54.97 +22 04 23.8   699 – Lowell Observatory-LONEOS MPS 8576
1999 12 04.33999 03 47 06.50 +21 56 34.2 18.4 V 691 – Steward Observatory, Kitt Peak-Spacewatch MPS 8576
1999 12 04.36252 03 47 05.27 +21 56 29.7 17.3 V 691 – Steward Observatory, Kitt Peak-Spacewatch MPS 8576
1999 12 04.38493 03 47 04.04 +21 56 24.3 17.4 V 691 – Steward Observatory, Kitt Peak-Spacewatch MPS 8576
1999 12 05.23155 03 46 21.15 +21 53 12.4 16.6 R 703 – Catalina Sky Survey MPS 8576
1999 12 05.24387 03 46 20.47 +21 53 10.2 16.6 R 703 – Catalina Sky Survey MPS 8576
1999 12 05.25618 03 46 19.81 +21 53 06.7 16.9 R 703 – Catalina Sky Survey MPS 8576
1999 12 05.26851 03 46 19.14 +21 53 04.2 16.9 R 703 – Catalina Sky Survey MPS 8576
1999 12 07.22211 03 44 43.22 +21 45 44.6 17.0   704 – Lincoln Laboratory ETS, New Mexico MPS 7830
1999 12 07.23668 03 44 42.50 +21 45 41.5 17.4   704 – Lincoln Laboratory ETS, New Mexico MPS 7830
1999 12 07.25121 03 44 41.77 +21 45 38.2 17.9   704 – Lincoln Laboratory ETS, New Mexico MPS 7830
1999 12 07.26579 03 44 41.02 +21 45 34.8 17.5   704 – Lincoln Laboratory ETS, New Mexico MPS 7830
1999 12 07.28034 03 44 40.29 +21 45 31.8 17.5   704 – Lincoln Laboratory ETS, New Mexico MPS 7830
1999 12 08.26247 03 43 54.30 +21 41 54.3 17.0   704 – Lincoln Laboratory ETS, New Mexico MPS 7830
1999 12 08.27489 03 43 53.70 +21 41 51.4 17.7   704 – Lincoln Laboratory ETS, New Mexico MPS 7830
1999 12 08.28732 03 43 53.09 +21 41 48.5 17.4   704 – Lincoln Laboratory ETS, New Mexico MPS 7830
1999 12 08.29966 03 43 52.49 +21 41 45.4 17.3   704 – Lincoln Laboratory ETS, New Mexico MPS 7830
1999 12 08.31205 03 43 51.86 +21 41 42.6 17.6   704 – Lincoln Laboratory ETS, New Mexico MPS 7830
1999 12 14.16803 03 39 53.57 +21 21 22.8 18.2 V 691 – Steward Observatory, Kitt Peak-Spacewatch MPS 8576
1999 12 14.19084 03 39 52.72 +21 21 18.5 17.2 V 691 – Steward Observatory, Kitt Peak-Spacewatch MPS 8576
1999 12 14.21329 03 39 51.84 +21 21 14.4 17.3 V 691 – Steward Observatory, Kitt Peak-Spacewatch MPS 8576
2000 01 13.17583 03 38 56.38 +20 37 54.4 18.0 R 699 – Lowell Observatory-LONEOS MPS 12019
2000 01 13.20133 03 38 57.06 +20 37 55.3   699 – Lowell Observatory-LONEOS MPS 12019
2000 01 13.22677 03 38 57.86 +20 37 55.5   699 – Lowell Observatory-LONEOS MPS 12019
2000 01 30.10311 03 52 16.59 +21 00 51.6 18.8   704 – Lincoln Laboratory ETS, New Mexico MPS 9944
2000 01 30.11787 03 52 17.48 +21 00 53.8 18.4   704 – Lincoln Laboratory ETS, New Mexico MPS 9944
2000 01 30.13263 03 52 18.38 +21 00 55.3 19.0   704 – Lincoln Laboratory ETS, New Mexico MPS 9944
2000 01 30.14742 03 52 19.24 +21 00 56.6 18.9   704 – Lincoln Laboratory ETS, New Mexico MPS 9944
2000 02 03.08755 03 56 35.05 +21 09 37.4 18.8   704 – Lincoln Laboratory ETS, New Mexico MPS 9944
2000 02 03.10178 03 56 35.98 +21 09 39.4 18.8   704 – Lincoln Laboratory ETS, New Mexico MPS 9944
2000 02 03.11605 03 56 36.91 +21 09 41.6 18.8   704 – Lincoln Laboratory ETS, New Mexico MPS 9944
2000 02 03.13030 03 56 37.84 +21 09 42.9 19.1   704 – Lincoln Laboratory ETS, New Mexico MPS 9944
2000 02 03.14460 03 56 38.76 +21 09 45.2 19.0   704 – Lincoln Laboratory ETS, New Mexico MPS 9944
2000 02 03.77593 03 57 21.96 +21 11 11.6 17.7 V 049 – Uppsala-Kvistaberg MPS 9944
2000 02 03.78222 03 57 22.38 +21 11 11.7 18.0 V 049 – Uppsala-Kvistaberg MPS 9944
2000 02 03.78546 03 57 22.61 +21 11 12.1 18.1 V 049 – Uppsala-Kvistaberg MPS 9944
